Home   Weather   Geelong   Past weeks

Flag for Australia Past Weather in Geelong, Victoria, Australia — Yesterday and Last 2 Weeks

Now
50 °F

Cool.


Feels Like: 50 °F
Forecast: 46 / 90 °F
Wind: 1 mph from Southwest

Location: Geelong Airport Aws

Current Time: Dec 4, 2016 at 6:51:26 am

Latest Report: Dec 4, 2016 at 4:00 am


Visibility: N/A

Pressure: 29.86 "Hg

Humidity: 94%

Dew Point: 48 °F

Location of GeelongLocation

Past Weather in Geelong — Graph

°F

Geelong Temperature Yesterday

Maximum temperature yesterday: 68 °F (at 3:00 pm)
Minimum temperature yesterday: 44 °F (at 6:00 am)
Average temperature yesterday: 57 °F

High & Low Weather Summary for the Past Weeks

 TemperatureHumidityPressure
High97 °F (Nov 21, 4:00 pm)95% (Nov 20, 4:00 am)30.17 "Hg (Nov 20, 4:00 am)
Low43 °F (Nov 19, 6:00 am)22% (Nov 21, 4:00 pm)29.61 "Hg (Nov 21, 4:00 pm)
Average59 °F75%29.97 "Hg
* Reported Nov 19 4:00 am — Dec 4 4:00 am, Geelong, Weather by CustomWeather, © 2016

Note: Actual official high and low records may vary slightly from our data, if they occured in-between our weather recording intervals... More about our weather records

Advertising

Geelong Weather History for the Previous 24 Hours

Scroll right to see more
 ConditionsComfort  
Time TempWeatherWind HumidityBarometerVisibility
4:00 am
Sun, Dec 4
50 °FCool.1 mph94%29.86 "HgN/A
3:00 am51 °FCool.1 mph94%29.87 "HgN/A
1:00 am53 °FCool.No wind93%29.92 "HgN/A
12:00 am53 °FCool.3 mph93%29.94 "HgN/A
10:00 pm
Sat, Dec 3
56 °FCool.5 mph87%29.96 "HgN/A
9:00 pm58 °FCool.7 mph81%29.96 "HgN/A
7:00 pm64 °FMild.12 mph56%29.95 "HgN/A
6:00 pm66 °FMild.13 mph54%29.94 "HgN/A
4:00 pm67 °FMild.10 mph51%29.96 "HgN/A
3:00 pm68 °FMild.9 mph50%29.97 "HgN/A
1:00 pm67 °FMild.8 mph51%29.99 "HgN/A
12:00 pm65 °FMild.8 mph54%30.01 "HgN/A
10:00 am62 °FRefreshingly cool.6 mph58%30.02 "HgN/A
9:00 am62 °FCool.3 mph60%30.02 "HgN/A
7:00 am47 °FCool.1 mph93%30.00 "HgN/A
6:00 am44 °FQuite cool.No wind93%29.98 "HgN/A
Weather by CustomWeather, © 2016

See weather overviewHow to use our weather pages